GORIZONT 31 [-]

Last updated on Oct. 25, 2020, 5:56 a.m. UTC

1 23775U 96005A   20298.70947951 -.00000150  00000-0  00000+0 0  9993
2 23775  14.5061  10.4827 0016428 189.9163 175.9117  0.99881858 90458
UTC
Height (km)
Latitude
Longitude
Inclination
Orbital Period
UTC large
Height (km)
Speed (km/s)
/
Latitude / Longitude
Inclination (degrees)
Orbital Period (minutes)
Azimuth
Elevation
Range (km)
Doppler Factor
iOS Compass Heading
iOS Angle

Next 30 passes for location: Hong Kong

Rise time Rise Azimuth (degrees) Set time Set Azimuth (degrees) Duration Max altitude (degrees)

No matching passes for this satellites